Morgantown, WV

10:41 PM EDT on June 28, 2017 (GMT -0400)
Morgantown Municipal-Hart

Weather History for KMGW - December, 2009

Change the Weather History Date:

Tuesday, December 29, 2009

  Actual Average Record
Temperature  
Mean Temperature 20 °F 32 °F  
Max Temperature 28 °F 40 °F 69 °F (1984)
Min Temperature 12 °F 24 °F 6 °F (1976)
Degree Days  
Heating Degree Days 45 33  
Month to date heating degree days 881 871  
Since 1 July heating degree days 1693 1919  
Cooling Degree Days 0 0  
Month to date cooling degree days 0 0  
Year to date cooling degree days 844 814  
Moisture  
Dew Point 12 °F    
Average Humidity 63    
Maximum Humidity 80    
Minimum Humidity 46    
Precipitation  
Precipitation 0.02 in 0.08 in 1.37 in (1954)
Month to date precipitation 2.27 2.74  
Year to date precipitation 37.91 41.66  
Sea Level Pressure  
Sea Level Pressure 30.28 in    
Wind  
Wind Speed 6 mph (WNW)    
Max Wind Speed 16 mph    
Max Gust Speed 28 mph    
Visibility 7 miles    
Events Fog , Snow    
T = Trace of Precipitation, MM = Missing Value Source: NWS Daily Summary

Daily Weather History Graph

Daily Weather History Graph

Search for Another Location

Airport or City:

Trip Planner

Search our weather history database for the weather conditions in past years. The results will help you decide how hot, cold, wet, or windy it might be!

Date:

Astronomy

Dec. 29, 2009 Rise Set
Actual Time 7:39 AM EST 5:03 PM EST
Civil Twilight 7:09 AM EST 5:34 PM EST
Nautical Twilight 6:35 AM EST 6:08 PM EST
Astronomical Twilight 6:03 AM EST 6:40 PM EST
Moon 2:50 PM EST 5:29 AM EST
Length of Visible Light 10h 24m
Length of Day
9h 23m
Waxing Gibbous, 94% of the Moon is Illuminated
Dec 29
Waxing Gibbous
Dec 31
Full
Jan 7
Last Quarter
Jan 15
New
Jan 23
First Quarter

Hourly Weather History & Observations

Time (EST) Temp. Windchill Dew Point Humidity Pressure Visibility Wind Dir Wind Speed Gust Speed Precip Events Conditions
12:08 AM 26.6 °F 14.3 °F 21.2 °F 80% 30.02 in 0.8 mi NW 16.1 mph 27.6 mph 0.00 in Snow Light Snow
12:14 AM 24.8 °F 15.3 °F 19.4 °F 80% 30.02 in 0.2 mi WNW 9.2 mph 27.6 mph 0.01 in Snow Heavy Snow
12:21 AM 24.8 °F 14.6 °F 19.4 °F 80% 30.02 in 0.2 mi WNW 10.4 mph 20.7 mph 0.02 in Fog , Snow Snow
12:23 AM 24.8 °F 15.3 °F 19.4 °F 80% 30.02 in 0.5 mi WNW 9.2 mph 20.7 mph 0.02 in Fog , Snow Snow
12:29 AM 24.8 °F 16.1 °F 17.6 °F 74% 30.02 in 2.0 mi WNW 8.1 mph 16.1 mph 0.02 in Snow Light Snow
12:36 AM 26.6 °F 17.5 °F 15.8 °F 64% 30.02 in 9.0 mi WNW 9.2 mph 20.7 mph 0.02 in   Overcast
12:50 AM 26.6 °F 16.2 °F 12.2 °F 55% 30.03 in 9.0 mi NW 11.5 mph 23.0 mph 0.02 in   Overcast
12:53 AM 26.1 °F 16.2 °F 12.0 °F 55% 30.08 in 9.0 mi NW 10.4 mph 23.0 mph 0.02 in   Overcast
1:53 AM 26.1 °F 16.8 °F 10.9 °F 53% 30.12 in 10.0 mi WNW 9.2 mph 17.3 mph N/A   Overcast
2:53 AM 25.0 °F 16.3 °F 9.0 °F 51% 30.17 in 10.0 mi WNW 8.1 mph - N/A   Overcast
3:53 AM 25.0 °F 17.1 °F 9.0 °F 51% 30.19 in 10.0 mi WNW 6.9 mph 24.2 mph N/A   Overcast
4:53 AM 24.1 °F 15.2 °F 12.0 °F 60% 30.21 in 10.0 mi West 8.1 mph - N/A   Overcast
5:53 AM 23.0 °F 12.4 °F 14.0 °F 68% 30.25 in 10.0 mi WNW 10.4 mph - 0.00 in   Overcast
6:39 AM 21.2 °F 10.1 °F 14.0 °F 74% 30.23 in 2.0 mi NW 10.4 mph 18.4 mph 0.00 in Snow Light Snow
6:46 AM 21.2 °F 11.7 °F 15.8 °F 80% 30.24 in 1.5 mi WNW 8.1 mph 17.3 mph 0.00 in Snow Light Snow
6:53 AM 21.9 °F 13.4 °F 15.1 °F 75% 30.30 in 4.0 mi NW 6.9 mph - 0.00 in Snow Light Snow
7:05 AM 21.2 °F 14.9 °F 15.8 °F 80% 30.25 in 6.0 mi NW 4.6 mph - 0.00 in   Haze
7:53 AM 21.9 °F 14.5 °F 14.0 °F 72% 30.33 in 5.0 mi NW 5.8 mph - 0.00 in   Haze
8:01 AM 21.2 °F - 15.8 °F 80% 30.29 in 1.8 mi Calm Calm - 0.00 in Snow Light Snow
8:24 AM 21.2 °F 14.9 °F 15.8 °F 80% 30.30 in 2.0 mi NW 4.6 mph - 0.00 in Snow Light Snow
8:31 AM 21.2 °F 13.6 °F 15.8 °F 80% 30.30 in 1.8 mi NNW 5.8 mph - 0.00 in Snow Light Snow
8:38 AM 21.2 °F 13.6 °F 14.0 °F 74% 30.31 in 2.5 mi Variable 5.8 mph - 0.00 in   Haze
8:53 AM 21.9 °F 15.7 °F 15.1 °F 75% 30.37 in 2.5 mi NW 4.6 mph - 0.00 in Snow Light Snow
9:04 AM 21.2 °F 16.4 °F 15.8 °F 80% 30.32 in 5.0 mi NW 3.5 mph - 0.00 in   Haze
9:53 AM 23.0 °F 17.0 °F 12.9 °F 65% 30.40 in 10.0 mi WNW 4.6 mph - 0.00 in   Mostly Cloudy
10:53 AM 24.1 °F 14.4 °F 9.0 °F 53% 30.41 in 10.0 mi WNW 9.2 mph 16.1 mph N/A   Overcast
11:53 AM 24.1 °F 13.1 °F 8.1 °F 51% 30.40 in 10.0 mi West 11.5 mph 18.4 mph N/A   Overcast
12:53 PM 26.1 °F 16.2 °F 8.1 °F 47% 30.40 in 10.0 mi WNW 10.4 mph 17.3 mph N/A   Overcast
1:53 PM 26.1 °F 15.0 °F 9.0 °F 49% 30.40 in 10.0 mi WNW 12.7 mph - N/A   Mostly Cloudy
2:53 PM 26.1 °F 20.5 °F 9.0 °F 49% 30.42 in 10.0 mi Variable 4.6 mph - N/A   Clear
3:53 PM 26.1 °F 20.5 °F 8.1 °F 47% 30.42 in 10.0 mi NW 4.6 mph - N/A   Clear
4:53 PM 24.1 °F 19.7 °F 8.1 °F 51% 30.44 in 10.0 mi NW 3.5 mph - N/A   Clear
5:53 PM 21.9 °F - 8.1 °F 55% 30.44 in 10.0 mi Calm Calm - N/A   Clear
6:53 PM 21.0 °F - 8.1 °F 57% 30.46 in 10.0 mi Calm Calm - N/A   Clear
7:53 PM 19.9 °F - 9.0 °F 62% 30.47 in 9.0 mi Calm Calm - N/A   Clear
8:53 PM 18.0 °F - 7.0 °F 62% 30.48 in 10.0 mi Calm Calm - N/A   Clear
9:53 PM 15.1 °F - 9.0 °F 77% 30.49 in 10.0 mi Calm Calm - N/A   Clear
10:53 PM 14.0 °F - 8.1 °F 77% 30.51 in 10.0 mi Calm Calm - N/A   Clear
11:53 PM 12.0 °F 5.9 °F 7.0 °F 80% 30.51 in 7.0 mi South 3.5 mph - N/A   Clear